Location: Lanoux
(43.1180°N, 1.4255°E)
Time: 12:46:05
(UTC+00:00)

Meteor 2-10 - Pass Details

Date: 14 March 2026
Orbit: 736 x 866 km, 81.2° (Epoch: 18 April)

Event Time Altitude Azimuth Distance (km) Brightness Sun altitude
Rises 04:24:12 0° 8° (N) 3,180 7.5 -19.7°
Reaches altitude 10° 04:27:56 10° 36° (NE) 2,249 7.1 -19.0°
Maximum altitude 04:30:12 13° 63° (ENE) 2,054 7.3 -18.6°
Drops below altitude 10° 04:32:27 10° 90° (E) 2,250 7.6 -18.2°
Sets 04:36:10 0° 118° (ESE) 3,182 8.0 -17.6°
